STARLINK-35944 (66928 NORAD) Tracking and Keplerian Element Data

This shows tracking and keplerian element data for the satellite.

Feedback or suggestion? Click here.




ElementValue
Catalog66928
NameSTARLINK-35944
Epoch Orbit319
Epoch Day354.25003472
Epoch Year2025
RAAN12.7281
Inclination53.156
Eccentricity9.09E-05
Argument of Perigee82.5726
Mean Anonmoly149.8139
Mean Motion15.77966752
Decay Rate-0.01396111
L11 66928U 25286D 25354.25003472 -.01396111 00000+0 -90786-2 0 9991
L22 66928 53.1560 12.7281 0000909 82.5726 149.8139 15.77966752 3195



Live tracking and technical data element details for STARLINK-35944 (NORAD 66928). STARLINK-35944 can be tracked NOW for your location showing map with azimuth and elevation plus other details from your city location.







IsCatalogInMostPopularTable: catalog: 66928, numindb: 28
Update: records affected: 1



GetName: 66928 STARLINK-35944

Hit Count: updated at: Thu, 21 May 2026 11:54:38 GMT